Location: Houston
(29.7631°N, 95.3631°W)
Time: 23:53:46
(UTC-05:00)

UNISAT 6 - Pass Details

Date: 28 September 2021
Orbit: 607 x 687 km, 97.7° (Epoch: 19 October)

Event Time Altitude Azimuth Distance (km) Brightness Sun altitude
Rises 19:33:17 0° 26° (NNE) 3,048 ? -5.9°
Reaches altitude 10° 19:35:50 10° 38° (NE) 2,122 ? -6.4°
Maximum altitude 19:39:47 27° 96° (E) 1,284 ? -7.3°
Drops below altitude 10° 19:43:38 10° 155° (SSE) 2,080 ? -8.1°
Sets 19:46:07 0° 167° (SSE) 2,975 ? -8.6°
